D1965 Weather Reports


Display with metric or nautical units.
time (UTC)temp
F
wind
direction
speed
MPH
gust
MPH
rain 1hr
in
rain 24hr
in
rain mn
in
humidity
%
barometer
mb
20260508153506 58 24 2.0 9.0 0.00 0.00 0.00 67 1015.5
20260508153005 59 30 1.0 5.0 0.00 0.00 0.00 66 1015.6
20260508152005 58 39 1.0 4.0 0.00 0.00 0.00 64 1015.6
20260508151505 58 55 1.0 3.0 0.00 0.00 0.00 64 1015.6
20260508151005 58 83 1.0 3.0 0.00 0.00 0.00 63 1015.5
20260508150006 58 72 2.0 4.0 0.00 0.00 0.00 65 1015.5
20260508145506 58 69 2.0 4.0 0.00 0.00 0.00 64 1015.5
20260508144506 58 89 1.0 7.0 0.00 0.00 0.00 64 1015.6
20260508144005 59 93 1.0 7.0 0.00 0.00 0.00 61 1015.6
20260508143505 59 96 0.0 4.0 0.00 0.00 0.00 58 1015.6
20260508143005 59 92 1.0 5.0 0.00 0.00 0.00 63 1015.5
20260508142506 59 81 1.0 5.0 0.00 0.00 0.00 57 1015.5
20260508142005 59 66 1.0 6.0 0.00 0.00 0.00 60 1015.4
20260508141505 59 71 2.0 6.0 0.00 0.00 0.00 55 1015.4
20260508141005 60 68 2.0 5.0 0.00 0.00 0.00 62 1015.3
20260508140507 60 55 1.0 4.0 0.00 0.00 0.00 59 1015.3
20260508140005 60 67 1.0 4.0 0.00 0.00 0.00 61 1015.2
20260508135506 59 68 1.0 4.0 0.00 0.00 0.00 59 1015.2
20260508135005 59 46 1.0 4.0 0.00 0.00 0.00 57 1015.1
20260508134506 59 45 1.0 7.0 0.00 0.00 0.00 58 1015.2
20260508134005 59 43 1.0 7.0 0.00 0.00 0.00 62 1015.2
20260508133506 60 44 1.0 4.0 0.00 0.00 0.00 63 1015.2
20260508133005 60 41 2.0 7.0 0.00 0.00 0.00 62 1015.2
20260508132506 61 39 2.0 7.0 0.00 0.00 0.00 60 1015.2
20260508132005 62 34 1.0 5.0 0.00 0.00 0.00 60 1015.2
20260508131505 62 35 1.0 5.0 0.00 0.00 0.00 59 1015.2
20260508131005 61 38 1.0 5.0 0.00 0.00 0.00 63 1015.2
20260508130506 61 38 1.0 5.0 0.00 0.00 0.00 60 1015.2
20260508130005 62 38 0.0 5.0 0.00 0.00 0.00 62 1015.2
20260508125505 62 0 0.0 0.0 0.00 0.00 0.00 61 1015.2
20260508125005 62 0 0.0 0.0 0.00 0.00 0.00 61 1015.1
20260508124506 62 0 0.0 0.0 0.00 0.00 0.00 63 1015.2
20260508124004 62 0 0.0 0.0 0.00 0.00 0.00 63 1015.1
20260508123505 62 0 0.0 0.0 0.00 0.00 0.00 62 1015.0
20260508123005 62 0 0.0 0.0 0.00 0.00 0.00 64 1015.0
20260508122506 61 0 0.0 0.0 0.00 0.00 0.00 67 1015.1
20260508122005 60 0 0.0 0.0 0.00 0.00 0.00 67 1015.1
20260508121004 59 0 0.0 0.0 0.00 0.00 0.00 66 1015.0
20260508120506 59 0 0.0 0.0 0.00 0.00 0.00 67 1015.0
20260508120005 59 0 0.0 0.0 0.00 0.00 0.00 67 1015.1
20260508115505 58 0 0.0 0.0 0.00 0.00 0.00 67 1015.1
20260508115004 58 0 0.0 0.0 0.00 0.00 0.00 66 1015.0
20260508114506 58 0 0.0 0.0 0.00 0.00 0.00 67 1015.1
20260508114005 58 0 0.0 0.0 0.00 0.00 0.00 65 1015.0
20260508113507 59 0 0.0 0.0 0.00 0.00 0.00 59 1014.9
20260508113005 59 0 0.0 0.0 0.00 0.00 0.00 59 1014.9
20260508112505 59 0 0.0 0.0 0.00 0.00 0.00 59 1014.8
20260508111505 58 0 0.0 0.0 0.00 0.00 0.00 62 1014.8
20260508110005 58 0 0.0 0.0 0.00 0.00 0.00 61 1014.8
20260508105506 58 27 0.0 3.0 0.00 0.00 0.00 59 1014.8
20260508105005 58 57 1.0 5.0 0.00 0.00 0.00 60 1014.8
20260508104505 58 73 2.0 6.0 0.00 0.00 0.00 63 1014.8
20260508104004 59 73 2.0 6.0 0.00 0.00 0.00 61 1014.9
20260508103506 59 67 2.0 6.0 0.00 0.00 0.00 64 1014.9
20260508103005 59 96 1.0 6.0 0.00 0.00 0.00 65 1014.8
20260508102004 59 143 0.0 4.0 0.00 0.00 0.00 57 1014.7
20260508101505 60 292 0.0 2.0 0.00 0.00 0.00 64 1014.8
20260508101005 60 292 0.0 2.0 0.00 0.00 0.00 68 1014.7
20260508100505 60 292 0.0 2.0 0.00 0.00 0.00 68 1014.6
20260508100005 59 0 0.0 0.0 0.00 0.00 0.00 70 1014.7
20260508095505 58 0 0.0 0.0 0.00 0.00 0.00 74 1014.7
20260508095004 58 0 0.0 0.0 0.00 0.00 0.00 73 1014.8
20260508094506 57 57 0.0 2.0 0.00 0.00 0.00 73 1014.8
20260508093505 57 45 1.0 4.0 0.00 0.00 0.00 73 1014.8
20260508093005 56 37 1.0 4.0 0.00 0.00 0.00 73 1014.7
20260508092506 56 22 0.0 1.0 0.00 0.00 0.00 74 1014.7
20260508092004 56 359 0.0 3.0 0.00 0.00 0.00 75 1014.7
20260508091505 56 359 0.0 3.0 0.00 0.00 0.00 74 1014.8
20260508091005 55 0 0.0 0.0 0.00 0.00 0.00 75 1014.8
20260508090006 55 0 0.0 0.0 0.00 0.00 0.00 75 1014.6
20260508085505 55 0 0.0 0.0 0.00 0.00 0.00 76 1014.7
20260508085004 55 28 0.0 1.0 0.00 0.00 0.00 75 1014.7
20260508084505 55 28 0.0 1.0 0.00 0.00 0.00 73 1014.7
20260508084005 55 24 1.0 3.0 0.00 0.00 0.00 74 1014.7
20260508083505 56 22 1.0 3.0 0.00 0.00 0.00 73 1014.8
20260508083005 56 19 0.0 3.0 0.00 0.00 0.00 73 1014.7
20260508082506 56 37 0.0 2.0 0.00 0.00 0.00 74 1014.7
20260508082005 56 37 0.0 2.0 0.00 0.00 0.00 74 1014.5
20260508081505 56 37 0.0 2.0 0.00 0.00 0.00 72 1014.6
20260508081005 56 36 0.0 2.0 0.00 0.00 0.00 74 1014.5
20260508080505 55 0 0.0 0.0 0.00 0.00 0.00 73 1014.7
20260508080004 55 0 0.0 0.0 0.00 0.00 0.00 75 1014.6
20260508075506 55 0 0.0 0.0 0.00 0.00 0.00 74 1014.6
20260508075005 55 0 0.0 0.0 0.00 0.00 0.00 75 1014.5
20260508074004 54 0 0.0 0.0 0.00 0.00 0.00 75 1014.3
20260508073505 54 0 0.0 0.0 0.00 0.00 0.00 75 1014.2
20260508073005 54 0 0.0 0.0 0.00 0.00 0.00 75 1014.2
20260508072505 54 0 0.0 0.0 0.00 0.00 0.00 77 1014.2
20260508072005 54 0 0.0 0.0 0.00 0.00 0.00 77 1014.2
20260508071505 53 0 0.0 0.0 0.00 0.00 0.00 77 1014.2
20260508071004 53 0 0.0 0.0 0.00 0.00 0.00 80 1014.1
20260508070005 51 0 0.0 0.0 0.00 0.00 0.00 82 1014.0
20260508065504 50 0 0.0 0.0 0.00 0.00 0.00 83 1014.0
20260508065004 50 0 0.0 0.0 0.00 0.00 0.00 86 1014.1
20260508064506 49 0 0.0 0.0 0.00 0.00 0.00 88 1014.0
20260508064004 48 0 0.0 0.0 0.00 0.00 0.00 90 1014.0
20260508063505 47 0 0.0 0.0 0.00 0.00 0.00 92 1013.9
20260508063004 46 0 0.0 0.0 0.00 0.00 0.00 92 1013.9
20260508062505 45 0 0.0 0.0 0.00 0.00 0.00 91 1014.0
20260508062004 45 0 0.0 0.0 0.00 0.00 0.00 91 1013.9
20260508061505 44 0 0.0 0.0 0.00 0.00 0.00 91 1013.9
20260508061004 44 0 0.0 0.0 0.00 0.00 0.00 92 1013.8
20260508060505 43 0 0.0 0.0 0.00 0.00 0.00 93 1013.8
20260508060005 42 0 0.0 0.0 0.00 0.00 0.00 93 1013.8
20260508055505 42 0 0.0 0.0 0.00 0.00 0.00 93 1013.8
20260508054505 41 0 0.0 0.0 0.00 0.00 0.00 92 1013.6
20260508054004 41 0 0.0 0.0 0.00 0.00 0.00 92 1013.5
20260508053505 41 0 0.0 0.0 0.00 0.00 0.00 92 1013.4
20260508053005 41 0 0.0 0.0 0.00 0.00 0.00 93 1013.4
20260508052005 40 0 0.0 0.0 0.00 0.00 0.00 92 1013.4
20260508051505 40 0 0.0 0.0 0.00 0.00 0.00 91 1013.4
20260508051004 40 0 0.0 0.0 0.00 0.00 0.00 90 1013.3
20260508050505 40 0 0.0 0.0 0.00 0.00 0.00 90 1013.4
20260508045505 40 0 0.0 0.0 0.00 0.00 0.00 91 1013.4
20260508045004 40 0 0.0 0.0 0.00 0.00 0.00 91 1013.5
20260508044505 40 0 0.0 0.0 0.00 0.00 0.00 91 1013.3
20260508044004 40 0 0.0 0.0 0.00 0.00 0.00 91 1013.4
20260508042505 41 0 0.0 0.0 0.00 0.00 0.00 91 1013.4
20260508042004 41 0 0.0 0.0 0.00 0.00 0.00 91 1013.2
20260508041505 41 0 0.0 0.0 0.00 0.00 0.00 91 1013.1
20260508040505 41 0 0.0 0.0 0.00 0.00 0.00 90 1013.0
20260508040004 41 0 0.0 0.0 0.00 0.00 0.00 90 1013.0
20260508035505 41 0 0.0 0.0 0.00 0.00 0.00 90 1013.1
20260508035005 41 0 0.0 0.0 0.00 0.00 0.00 90 1013.0
20260508034505 42 0 0.0 0.0 0.00 0.00 0.00 90 1013.1
20260508034004 42 0 0.0 0.0 0.00 0.00 0.00 90 1013.1
20260508033504 42 0 0.0 0.0 0.00 0.00 0.00 90 1013.0
20260508033004 42 0 0.0 0.0 0.00 0.00 0.00 90 1013.1
20260508032504 42 0 0.0 0.0 0.00 0.00 0.00 91 1013.0
20260508032004 42 0 0.0 0.0 0.00 0.00 0.00 90 1013.0
20260508031506 42 0 0.0 0.0 0.00 0.00 0.00 90 1013.0
20260508030004 42 0 0.0 0.0 0.00 0.00 0.00 88 1013.0
20260508025504 43 0 0.0 0.0 0.00 0.00 0.00 87 1013.0
20260508025004 43 0 0.0 0.0 0.00 0.00 0.00 86 1013.0
20260508024505 44 0 0.0 0.0 0.00 0.00 0.00 87 1013.1
20260508024004 44 0 0.0 0.0 0.00 0.00 0.00 88 1013.1
20260508023506 44 0 0.0 0.0 0.00 0.00 0.00 87 1013.1
20260508022505 45 0 0.0 0.0 0.00 0.00 0.00 87 1013.1
20260508022004 45 0 0.0 0.0 0.00 0.00 0.00 86 1013.1
20260508021504 45 0 0.0 0.0 0.00 0.00 0.00 86 1013.0
20260508020505 46 0 0.0 0.0 0.00 0.00 0.00 87 1013.1
20260508020004 46 0 0.0 0.0 0.00 0.00 0.00 87 1013.1
20260508015505 46 0 0.0 0.0 0.00 0.00 0.00 87 1013.2
20260508014505 47 0 0.0 0.0 0.00 0.00 0.00 84 1013.2
20260508014004 47 0 0.0 0.0 0.00 0.00 0.00 85 1013.1
20260508013505 47 0 0.0 0.0 0.00 0.00 0.00 85 1013.1
20260508013005 47 0 0.0 0.0 0.00 0.00 0.00 85 1013.2
20260508012004 48 0 0.0 0.0 0.00 0.00 0.00 85 1013.1
20260508011506 48 0 0.0 0.0 0.00 0.00 0.00 85 1013.0
20260508010505 48 0 0.0 0.0 0.00 0.00 0.00 84 1013.2
20260508010005 48 0 0.0 0.0 0.00 0.00 0.00 84 1013.2
20260508005505 48 0 0.0 0.0 0.00 0.00 0.00 84 1013.2
20260508005004 48 0 0.0 0.0 0.00 0.00 0.00 84 1013.2
20260508004505 48 0 0.0 0.0 0.00 0.00 0.00 84 1013.2
20260508004004 48 0 0.0 0.0 0.00 0.00 0.00 84 1013.2
20260508003505 48 0 0.0 0.0 0.00 0.00 0.00 84 1013.1
20260508003005 48 0 0.0 0.0 0.00 0.00 0.00 83 1013.2
20260508001505 49 0 0.0 0.0 0.00 0.00 0.00 83 1013.2
20260508000506 49 0 0.0 0.0 0.00 0.00 0.00 82 1013.1
20260508000004 49 0 0.0 0.0 0.00 0.00 0.00 82 1013.2
20260507235504 49 0 0.0 0.0 0.00 0.00 0.00 82 1013.2
20260507235004 49 0 0.0 0.0 0.00 0.00 0.00 82 1013.2
20260507234505 49 218 0.0 3.0 0.00 0.00 0.00 82 1013.2
20260507234003 49 218 0.0 3.0 0.00 0.00 0.00 82 1013.3
20260507233506 49 218 0.0 2.0 0.00 0.00 0.00 82 1013.2
20260507233004 49 215 0.0 3.0 0.00 0.00 0.00 82 1013.2
20260507232505 49 213 1.0 3.0 0.00 0.00 0.00 82 1013.2
20260507232003 49 212 1.0 3.0 0.00 0.00 0.00 82 1013.2
20260507231505 49 210 0.0 2.0 0.00 0.00 0.00 82 1013.3
20260507231004 49 0 0.0 0.0 0.00 0.00 0.00 82 1013.2
20260507230505 49 0 0.0 0.0 0.00 0.00 0.00 82 1013.3
20260507230004 49 0 0.0 0.0 0.00 0.00 0.00 82 1013.3
20260507225507 49 0 0.0 0.0 0.00 0.00 0.00 82 1013.3
20260507225004 49 0 0.0 0.0 0.00 0.00 0.00 82 1013.3
20260507224505 49 0 0.0 0.0 0.00 0.00 0.00 82 1013.2
20260507223504 49 0 0.0 0.0 0.00 0.00 0.00 81 1013.1
20260507223003 49 0 0.0 0.0 0.00 0.00 0.00 81 1013.1
20260507222504 49 0 0.0 0.0 0.00 0.00 0.00 81 1013.0
20260507222006 49 0 0.0 0.0 0.00 0.00 0.00 81 1013.1
20260507221504 49 0 0.0 0.0 0.00 0.00 0.00 81 1013.0
20260507221005 49 0 0.0 0.0 0.00 0.00 0.00 81 1013.1
20260507220503 49 0 0.0 0.0 0.00 0.00 0.00 81 1013.0
20260507220005 49 0 0.0 0.0 0.00 0.00 0.00 81 1013.0
20260507215504 49 0 0.0 0.0 0.00 0.00 0.00 81 1013.1
20260507215006 49 0 0.0 0.0 0.00 0.00 0.00 81 1013.1
20260507214505 49 0 0.0 0.0 0.00 0.00 0.00 82 1013.1
20260507214006 49 0 0.0 0.0 0.00 0.00 0.00 82 1013.1
20260507213505 49 0 0.0 0.0 0.00 0.00 0.00 82 1013.0
20260507212505 49 197 0.0 2.0 0.00 0.00 0.00 82 1012.9
20260507211506 50 204 0.0 1.0 0.00 0.00 0.00 81 1012.9
20260507211006 50 204 0.0 1.0 0.00 0.00 0.00 81 1012.9
20260507210505 50 205 0.0 1.0 0.00 0.00 0.00 81 1012.9
20260507210007 50 0 0.0 0.0 0.00 0.00 0.00 80 1012.7
20260507205505 50 0 0.0 0.0 0.00 0.00 0.00 80 1012.8
20260507205006 50 0 0.0 0.0 0.00 0.00 0.00 79 1012.7
20260507204505 51 0 0.0 0.0 0.00 0.00 0.00 79 1012.6
20260507204006 51 215 0.0 1.0 0.00 0.00 0.00 79 1012.5
20260507203506 51 215 1.0 4.0 0.00 0.00 0.00 79 1012.5
20260507203006 51 214 1.0 4.0 0.00 0.00 0.00 79 1012.5
20260507202506 51 215 1.0 5.0 0.00 0.00 0.00 78 1012.4
20260507202006 51 219 2.0 5.0 0.00 0.00 0.00 78 1012.4
20260507201505 51 225 2.0 5.0 0.00 0.00 0.00 78 1012.3
20260507200505 51 229 2.0 6.0 0.00 0.00 0.00 77 1012.2
20260507200007 51 220 2.0 5.0 0.00 0.00 0.00 77 1012.1
20260507195505 51 227 3.0 6.0 0.00 0.00 0.00 77 1012.0
20260507195006 51 227 3.0 8.0 0.00 0.00 0.00 76 1012.0
20260507194506 51 230 3.0 8.0 0.00 0.00 0.00 76 1011.9
20260507194006 52 239 4.0 10.0 0.00 0.00 0.00 75 1011.9
20260507193506 52 238 3.0 10.0 0.00 0.00 0.00 75 1011.9
20260507193006 52 233 3.0 7.0 0.00 0.00 0.00 75 1011.9
20260507192505 52 234 3.0 11.0 0.00 0.00 0.00 75 1011.9
20260507192005 52 234 3.0 11.0 0.00 0.00 0.00 74 1011.9
20260507191505 52 234 3.0 8.0 0.00 0.00 0.00 74 1011.8
20260507191006 52 232 3.0 8.0 0.00 0.00 0.00 74 1011.8
20260507190505 52 229 2.0 8.0 0.00 0.00 0.00 74 1011.7
20260507190006 52 231 2.0 9.0 0.00 0.00 0.00 73 1011.6
20260507185006 53 223 2.0 7.0 0.00 0.00 0.00 73 1011.6
20260507184505 53 207 2.0 6.0 0.00 0.00 0.00 73 1011.6
20260507184008 53 207 2.0 6.0 0.00 0.00 0.00 72 1011.6
20260507183007 53 214 2.0 8.0 0.00 0.00 0.00 72 1011.5
20260507182505 53 220 3.0 9.0 0.00 0.00 0.00 71 1011.5
20260507182006 53 221 3.0 9.0 0.00 0.00 0.00 71 1011.6
20260507181505 53 223 3.0 10.0 0.00 0.00 0.00 70 1011.5
20260507181007 53 223 3.0 10.0 0.00 0.00 0.00 70 1011.4
20260507180006 53 225 3.0 9.0 0.00 0.00 0.00 71 1011.5
20260507175505 53 234 3.0 9.0 0.00 0.00 0.00 70 1011.4
20260507175007 53 236 3.0 9.0 0.00 0.00 0.00 70 1011.4
20260507174505 53 232 3.0 9.0 0.00 0.00 0.00 70 1011.5
20260507174006 54 232 3.0 12.0 0.00 0.00 0.00 70 1011.5
20260507173505 54 231 3.0 12.0 0.00 0.00 0.00 69 1011.5
20260507173007 54 231 3.0 9.0 0.00 0.00 0.00 70 1011.5
20260507172007 54 236 4.0 10.0 0.00 0.00 0.00 69 1011.4
20260507171505 54 234 2.0 7.0 0.00 0.00 0.00 69 1011.4
20260507171006 54 228 2.0 7.0 0.00 0.00 0.00 69 1011.5
20260507170006 54 228 3.0 11.0 0.00 0.00 0.00 69 1011.5
20260507165504 54 236 4.0 11.0 0.00 0.00 0.00 69 1011.5
20260507165005 54 238 4.0 11.0 0.00 0.00 0.00 68 1011.5
20260507164505 54 231 3.0 7.0 0.00 0.00 0.00 69 1011.5
20260507164007 55 233 3.0 8.0 0.00 0.00 0.00 69 1011.5
20260507163505 55 233 4.0 11.0 0.00 0.00 0.00 68 1011.4
20260507163007 55 237 4.0 11.0 0.00 0.00 0.00 67 1011.3
20260507162505 55 236 4.0 9.0 0.00 0.00 0.00 66 1011.3
20260507162007 56 234 5.0 10.0 0.00 0.00 0.00 64 1011.3
20260507161505 56 235 4.0 10.0 0.00 0.00 0.00 63 1011.2
20260507161006 57 236 4.0 9.0 0.00 0.00 0.00 62 1011.2
20260507160505 57 252 4.0 8.0 0.00 0.00 0.00 59 1011.2
20260507160005 57 269 4.0 8.0 0.00 0.00 0.00 59 1011.1
20260507155504 57 270 4.0 9.0 0.00 0.00 0.00 58 1011.2
20260507155007 57 269 4.0 9.0 0.00 0.00 0.00 57 1011.1
20260507154505 57 260 4.0 9.0 0.00 0.00 0.00 58 1011.2
20260507154006 57 254 3.0 7.0 0.00 0.00 0.00 58 1011.1